Hourly Data Report for October 16, 2013

All times are specified in Local Standard Time (LST). Add 1 hour to adjust for Daylight Saving Time where and when it is observed.

PANGNIRTUNG
NUNAVUT

66°08'36.300" N
65°42'40.500" W
22.60 m
2403049
71826
WXP

Download Data

Hourly Data (October 2013)
Hourly Data Report for October 16, 2013
Temp Definition
°C
Dew Point Temp Definition
°C
Rel Hum Definition
%
Wind Dir Definition
10's deg

Wind Spd Definition
km/h
Visibility Definition
km
Stn Press Definition
kPa
Hmdx Definition


Wind Chill Definition


Weather Definition


TIME
00:00 2.8 -2.0 71 14 15   100.95     LegendNANA
01:00 2.6 -1.7 73 14 9   100.96     LegendNANA
02:00 2.7 -1.8 72 13 9   100.95     LegendNANA
03:00 1.9 -0.8 82 23 4   101.00     LegendNANA
04:00 0.9 0.1 94   0   101.02     LegendNANA
05:00 0.7 0.2 96   0   101.04     LegendNANA
06:00 0.6 0.3 98 11 2   101.05     LegendNANA
07:00 1.0 0.0 93 22 4   101.07     LegendNANA
08:00 0.6 0.2 97 9 2   101.07     LegendNANA
09:00 0.7 0.5 99 14 2   101.08     LegendNANA
10:00 1.0 0.6 97 5 2   101.09     LegendNANA
11:00 1.2 1.1 99 8 2   101.08     LegendNANA
12:00
13:00 1.3 1.1 99 11 4   101.10     LegendNANA
14:00 1.6 1.1 96 30 2   101.11     LegendNANA
15:00 1.4 0.1 91 14 2   101.12     LegendNANA
16:00 1.3 -0.1 90 28 2   101.11     LegendNANA
17:00 2.2 -1.5 76 17 15   101.12     LegendNANA
18:00 2.0 -1.1 80 17 13   101.18     LegendNANA
19:00 0.8 -0.4 92 12 2   101.20     LegendNANA
20:00 -0.2 -1.4 92 7 6   101.19   -2 LegendNANA
21:00 0.6 -1.5 86 12 11   101.19     LegendNANA
22:00 0.4 -1.9 85 11 6   101.16     LegendNANA
23:00 0.7 -1.9 83 12 9   101.14     LegendNANA

Notes on Data Quality.

Legend

  • E = Estimated
  • M = Missing
  • NA = Not Available
  • ‡ = Partner data that is not subject to review by the National Climate Archives
Date modified: